[[{"header":{"parameterUnit":"m.s-1","parameterCategory":1,"la1":30.2991,"la2":30.254,"lo1":-89.0895,"lo2":-89.0444,"dy":0.0017,"dx":0.0017,"nx":28,"ny":28,"refTime":"2025-06-21T21:00:00:Z","depth":0,"parameterNumber":2,"parameterNumberName":"U-component_of_WINDS"},"data":[0,0,0,0,0,0,0,0,0,0,0,0,0,0,0,0,0,0,0,0,0,0,0,0,0,0,0,0,0,0,0,0,0,0,0,0,0,0,0,0,0,0,0,0,0,0,0,0,0,0,0,0,0,0,0,0,0,0,-0.8031,-0.8031,0,-0.7998,-0.7998,-0.7998,-0.8008,-0.8008,-0.8009,-0.801,-0.7973,-0.7972,-0.797,0,0,0,0,0,0,0,0,0,0,0,0,0,-0.8101,-0.81,-0.8031,-0.8031,-0.8031,-0.7998,-0.7998,-0.7998,-0.8007,-0.8008,-0.8009,-0.801,-0.7974,-0.7972,-0.797,0,0,0,0,0,0,0,0,0,0,0,0,0,-0.807,-0.8099,-0.8031,-0.8032,-0.8031,-0.7999,-0.7998,-0.7997,-0.8007,-0.8008,-0.8009,-0.801,-0.7975,-0.7972,-0.797,-0.7934,0,0,-0.7962,-0.7961,0,0,0,0,0,0,0,0,-0.8071,-0.8067,-0.8032,-0.8032,-0.8031,-0.8008,-0.8009,-0.7976,-0.8007,-0.8016,-0.801,-0.8011,-0.7984,-0.7981,-0.7972,-0.7932,-0.7931,-0.7962,-0.7961,-0.796,-0.7959,0,0,0,0,0,0,0,-0.8074,-0.8069,-0.8018,-0.8032,-0.8031,-0.8033,-0.803,-0.8003,-0.7995,-0.8016,-0.8016,-0.8012,-0.7984,-0.7975,-0.7972,-0.793,-0.7962,-0.796,-0.7959,-0.7958,-0.7859,-0.7858,0,0,0,0,0,0,-0.8076,-0.807,-0.8019,-0.8017,-0.8054,-0.8031,-0.8027,-0.8015,-0.7995,-0.7993,-0.8012,-0.8013,-0.7978,-0.7974,-0.797,-0.7927,-0.796,-0.7957,-0.7956,-0.786,-0.7859,-0.7858,0,0,0,0,0,0,-0.8078,-0.8072,-0.8021,-0.8044,-0.8038,-0.8029,-0.8014,-0.8013,-0.8004,-0.7992,-0.799,-0.8004,-0.7979,-0.7974,-0.7943,-0.7926,-0.7956,-0.7954,-0.7862,-0.786,-0.7858,-0.784,0,0,0,0,0,0,-0.808,-0.8072,-0.8059,-0.8044,-0.8036,-0.7994,-0.8013,-0.8012,-0.8,-0.8002,-0.7984,-0.7982,-0.7979,-0.7947,-0.7941,-0.7923,-0.7952,-0.7863,-0.7861,-0.7859,-0.7842,-0.7837,-0.7834,0,0,0,0,0,-0.8082,-0.8054,-0.8058,-0.8052,-0.802,-0.7993,-0.7989,-0.7987,-0.7999,-0.7985,-0.7977,-0.7983,-0.7929,-0.7943,-0.7937,-0.7918,-0.7864,-0.7862,-0.7859,-0.7843,-0.7838,-0.7834,0,0,0,0,0,0,-0.8066,-0.8052,-0.8056,-0.8023,-0.8009,-0.7995,-0.7978,-0.7982,-0.7964,-0.7966,-0.7964,-0.796,-0.7928,-0.792,-0.7937,-0.7882,-0.7898,-0.7894,-0.7889,-0.7884,-0.788,-0.7882,-0.795,0,0,0,0,0,-0.8059,-0.804,-0.8028,-0.8,-0.7993,-0.7987,-0.7975,-0.7975,-0.7961,-0.7955,-0.7945,-0.793,-0.791,-0.7896,-0.7877,-0.7841,-0.7837,-0.7825,-0.7821,-0.7818,-0.7814,-0.7794,-0.7788,-0.7849,-0.7849,-0.7849,0,0,-0.8044,-0.8034,-0.8021,-0.7996,-0.7986,-0.7965,-0.7982,-0.7959,-0.7943,-0.7951,-0.7921,-0.7914,-0.7897,-0.7864,-0.7849,-0.7856,-0.7797,-0.7814,-0.7812,-0.781,-0.7791,-0.7785,-0.778,-0.7847,-0.7848,-0.7848,0,0,-0.8005,-0.7996,-0.7971,-0.796,-0.7945,-0.7941,-0.7935,-0.792,-0.7916,-0.7887,-0.7892,-0.7873,-0.7839,-0.7827,-0.7816,-0.7774,-0.7778,-0.7768,-0.7746,-0.7727,-0.7722,-0.7718,-0.7703,-0.7697,-0.7764,-0.7764,-0.7764,0,-0.7987,-0.7957,-0.7957,-0.7934,-0.7923,-0.793,-0.7905,-0.7894,-0.7873,-0.7865,-0.7874,-0.7831,-0.782,-0.7784,-0.7774,-0.7765,-0.7758,-0.7769,-0.7723,-0.7719,-0.7715,-0.77,-0.7694,-0.7763,-0.7763,-0.7763,-0.7763,0,-0.7936,-0.7915,-0.7896,-0.7877,-0.7863,-0.7839,-0.7835,-0.7822,-0.7824,-0.7818,-0.7789,-0.7777,-0.7755,-0.7747,-0.7747,-0.7711,-0.7716,-0.7724,-0.774,-0.7708,-0.7694,-0.7688,-0.7761,-0.7762,-0.7762,-0.7762,0,0,-0.7884,-0.7866,-0.7859,-0.785,-0.7834,-0.7818,-0.7794,-0.7774,-0.7762,-0.7748,-0.7727,-0.7699,-0.7707,-0.7695,-0.7694,-0.7677,-0.7644,-0.7688,-0.7687,-0.768,-0.7603,-0.7596,-0.7589,-0.7648,-0.7647,-0.7646,-0.7604,0,-0.7843,-0.7802,-0.7802,-0.7764,-0.7745,-0.7752,-0.7731,-0.7719,-0.7714,-0.7696,-0.7691,-0.767,-0.7682,-0.7675,-0.7659,-0.7652,-0.7629,-0.7655,-0.7628,-0.7627,-0.7631,-0.7582,-0.7574,-0.7535,-0.7598,-0.7597,-0.7597,0,-0.779,-0.7774,-0.7734,-0.7722,-0.7714,-0.7695,-0.7677,-0.766,-0.7646,-0.7644,-0.7631,-0.7634,-0.7609,-0.7627,-0.7593,-0.7611,-0.76,-0.7595,-0.7593,-0.759,-0.7609,-0.7576,-0.7522,-0.7516,-0.7588,-0.7589,-0.7589,0,-0.7755,-0.7725,-0.7697,-0.7689,-0.7674,-0.7661,-0.7654,-0.7641,-0.7629,-0.7613,-0.7606,-0.7587,-0.7576,-0.7561,-0.7559,-0.7572,-0.7524,-0.7542,-0.7521,-0.7521,-0.7509,-0.751,-0.7453,-0.7504,-0.7504,-0.7505,-0.7505,0,-0.7709,-0.7684,-0.7681,-0.7664,-0.7636,-0.7637,-0.7609,-0.7603,-0.7592,-0.7574,-0.7579,-0.7561,-0.7559,-0.7541,-0.7539,-0.7511,-0.7506,-0.7503,-0.7502,-0.7502,-0.7502,-0.7494,-0.7496,-0.7503,-0.7503,-0.7504,-0.7504,0,-0.7665,-0.7662,-0.7632,-0.7621,-0.7617,-0.7598,-0.7587,-0.7571,-0.7567,-0.7544,-0.7538,-0.7532,-0.7511,-0.7507,-0.7482,-0.748,-0.7447,-0.7449,-0.7451,-0.7451,-0.743,-0.7432,-0.7365,-0.7356,-0.7414,-0.7414,-0.7413,0,-0.7635,-0.7616,-0.7603,-0.7591,-0.7584,-0.7565,-0.7553,-0.7553,-0.754,-0.7524,-0.7509,-0.7489,-0.7473,-0.7438,-0.7431,-0.7412,-0.7414,-0.7392,-0.7411,-0.7411,-0.7412,-0.7413,-0.7411,-0.7387,-0.7387,-0.7386,-0.7386,0,-0.7581,-0.7581,-0.7565,-0.7547,-0.7533,-0.752,-0.7507,-0.7497,-0.7495,-0.7481,-0.746,-0.7447,-0.7422,-0.7402,-0.7383,-0.7375,-0.738,-0.738,-0.7374,-0.7373,-0.7374,-0.7372,-0.744,-0.7381,-0.7382,-0.7382,-0.7382,-0.7382,-0.7543,-0.7527,-0.7515,-0.7496,-0.7487,-0.7475,-0.7459,-0.7454,-0.7436,-0.7416,-0.7417,-0.7394,-0.7381,-0.7357,-0.7348,-0.733,-0.7337,-0.7328,-0.7326,-0.7323,-0.7321,-0.7378,-0.7326,-0.7326,-0.7327,-0.7327,-0.7327,0,-0.7489,-0.7483,-0.7465,-0.7448,-0.7433,-0.744,-0.7426,-0.7413,-0.7393,-0.7381,-0.7365,-0.7341,-0.7322,-0.7314,-0.7294,-0.7281,-0.7283,-0.7276,-0.7276,-0.7275,-0.7316,-0.7323,-0.7275,-0.7275,-0.7275,-0.7275,-0.7275,-0.7275,-0.7459,-0.7432,-0.7431,-0.7399,-0.7392,-0.737,-0.7362,-0.7351,-0.7341,-0.7314,-0.7299,-0.7294,-0.7283,-0.7264,-0.7246,-0.7244,-0.7237,-0.7229,-0.7228,-0.7266,-0.7272,-0.7276,-0.7283,-0.7227,-0.7227,-0.7187,-0.7187,-0.7187]},{"header":{"parameterUnit":"m.s-1","parameterCategory":1,"la1":30.2991,"la2":30.254,"lo1":-89.0895,"lo2":-89.0444,"dy":0.0017,"dx":0.0017,"nx":28,"ny":28,"refTime":"2025-06-21T21:00:00:Z","depth":0,"parameterNumber":3,"parameterNumberName":"V-component_of_WINDS"},"data":[0,0,0,0,0,0,0,0,0,0,0,0,0,0,0,0,0,0,0,0,0,0,0,0,0,0,0,0,0,0,0,0,0,0,0,0,0,0,0,0,0,0,0,0,0,0,0,0,0,0,0,0,0,0,0,0,0,0,1.8435,1.8435,0,1.8441,1.8441,1.8441,1.8471,1.8471,1.8472,1.8473,1.8476,1.8476,1.8475,0,0,0,0,0,0,0,0,0,0,0,0,0,1.8445,1.8445,1.8435,1.8435,1.8435,1.8441,1.8441,1.8441,1.847,1.8471,1.8472,1.8473,1.8477,1.8476,1.8475,0,0,0,0,0,0,0,0,0,0,0,0,0,1.8445,1.8445,1.8435,1.8451,1.8452,1.8441,1.8441,1.8441,1.847,1.8471,1.8472,1.8473,1.8477,1.8476,1.8475,1.8449,0,0,1.8473,1.8472,0,0,0,0,0,0,0,0,1.8445,1.8445,1.8448,1.845,1.8451,1.8456,1.8446,1.8443,1.847,1.8463,1.8473,1.8474,1.8469,1.8469,1.8467,1.8449,1.8449,1.8473,1.8472,1.8472,1.8471,0,0,0,0,0,0,0,1.8445,1.8444,1.8437,1.8448,1.845,1.8456,1.8457,1.8446,1.846,1.8464,1.8466,1.8467,1.847,1.8468,1.8468,1.8449,1.8473,1.8472,1.8471,1.8471,1.8405,1.8404,0,0,0,0,0,0,1.8443,1.8444,1.8437,1.8437,1.8451,1.8455,1.8456,1.8453,1.846,1.8462,1.8466,1.8468,1.8469,1.8468,1.8468,1.8434,1.8472,1.8471,1.847,1.8407,1.8405,1.8404,0,0,0,0,0,0,1.8443,1.8442,1.8437,1.8441,1.8441,1.8454,1.845,1.8453,1.8451,1.8461,1.8464,1.8462,1.847,1.8469,1.8453,1.8435,1.847,1.847,1.8408,1.8406,1.8404,1.8369,0,0,0,0,0,0,1.8444,1.8442,1.8433,1.8441,1.8441,1.8423,1.8449,1.8452,1.845,1.8453,1.8458,1.846,1.847,1.8454,1.8452,1.8435,1.8469,1.841,1.8407,1.8405,1.8372,1.8366,1.8362,0,0,0,0,0,1.8444,1.8423,1.8433,1.8432,1.843,1.8422,1.8421,1.8434,1.8449,1.8439,1.8445,1.846,1.8438,1.8452,1.845,1.8432,1.8411,1.8408,1.8405,1.8374,1.8367,1.8362,0,0,0,0,0,0,1.8413,1.8425,1.8435,1.8417,1.8418,1.8427,1.8415,1.8427,1.8424,1.8427,1.8443,1.8443,1.8424,1.8427,1.8442,1.8405,1.8427,1.8423,1.8404,1.8397,1.8392,1.8391,1.8468,0,0,0,0,0,1.8404,1.8397,1.8408,1.839,1.8391,1.8402,1.8399,1.8409,1.8411,1.8411,1.8416,1.8416,1.8408,1.8404,1.8398,1.8373,1.8373,1.836,1.8355,1.835,1.8346,1.833,1.8324,1.8395,1.8395,1.8395,0,0,1.8386,1.8391,1.8386,1.8384,1.8386,1.8377,1.8403,1.8393,1.8385,1.8409,1.8393,1.8397,1.8398,1.8376,1.8367,1.8378,1.8327,1.8347,1.8343,1.8342,1.8327,1.832,1.8314,1.8393,1.8393,1.8393,0,0,1.8347,1.8352,1.8336,1.8337,1.834,1.8348,1.8344,1.835,1.8353,1.8338,1.8355,1.8346,1.8334,1.8333,1.8331,1.8289,1.8301,1.8287,1.8259,1.8243,1.8237,1.8232,1.8214,1.8208,1.8283,1.8283,1.8283,0,1.8323,1.8311,1.8327,1.8315,1.8312,1.8334,1.8317,1.8317,1.8317,1.8314,1.8327,1.831,1.8313,1.8289,1.8279,1.8278,1.8272,1.8285,1.8237,1.8232,1.8228,1.821,1.8204,1.8281,1.8281,1.8282,1.8282,0,1.828,1.8271,1.8258,1.8258,1.8254,1.824,1.8251,1.8245,1.8255,1.8261,1.8243,1.8247,1.824,1.8236,1.8246,1.8213,1.8219,1.8234,1.8256,1.8218,1.8202,1.8196,1.8278,1.8279,1.828,1.828,0,0,1.8222,1.8229,1.8224,1.8222,1.8226,1.8218,1.8204,1.8198,1.8191,1.8191,1.8177,1.8165,1.8178,1.8176,1.8185,1.8172,1.8134,1.8188,1.8188,1.8175,1.8094,1.8081,1.8074,1.8143,1.8142,1.8141,1.8093,0,1.8182,1.8159,1.8171,1.8145,1.8135,1.8155,1.8142,1.8141,1.8146,1.8137,1.8142,1.8132,1.8152,1.815,1.8137,1.8141,1.8118,1.8145,1.8128,1.8127,1.8125,1.8066,1.8053,1.8007,1.8088,1.8087,1.8086,0,1.8133,1.8129,1.8102,1.8105,1.8101,1.8089,1.8083,1.8075,1.8074,1.8079,1.8075,1.8087,1.8071,1.8093,1.807,1.8088,1.8082,1.8082,1.8081,1.8078,1.8103,1.8058,1.7994,1.7985,1.8077,1.8078,1.8078,0,1.8089,1.8078,1.8059,1.8058,1.8061,1.8052,1.8053,1.8053,1.8048,1.8042,1.8038,1.8031,1.8027,1.802,1.8029,1.8045,1.8002,1.8027,1.8003,1.8002,1.7991,1.7992,1.7922,1.7992,1.7992,1.7992,1.7992,0,1.8042,1.8024,1.8039,1.8027,1.8006,1.8021,1.7999,1.8002,1.8002,1.7989,1.8006,1.7994,1.8008,1.7996,1.8004,1.7981,1.7979,1.798,1.7982,1.7977,1.7977,1.7972,1.7974,1.799,1.7991,1.7991,1.7991,0,1.799,1.7999,1.798,1.7984,1.7985,1.7969,1.7972,1.796,1.7966,1.7949,1.7946,1.7955,1.7942,1.795,1.7938,1.7942,1.7911,1.7919,1.7911,1.7912,1.7887,1.7888,1.7809,1.7798,1.7878,1.7877,1.7877,0,1.7958,1.7944,1.7946,1.7939,1.7939,1.7928,1.7922,1.7935,1.7928,1.7925,1.7912,1.7901,1.7892,1.787,1.7874,1.7863,1.7869,1.7842,1.7867,1.7862,1.7864,1.7864,1.7861,1.7836,1.7835,1.7834,1.7834,0,1.7899,1.7904,1.7895,1.7888,1.788,1.7875,1.7871,1.7864,1.7876,1.7867,1.7854,1.7847,1.7833,1.782,1.7811,1.7811,1.7822,1.7826,1.7819,1.7813,1.7808,1.7807,1.7894,1.7827,1.7828,1.7828,1.7829,1.7829,1.7853,1.7841,1.784,1.7829,1.7827,1.7822,1.781,1.7814,1.7803,1.7793,1.7801,1.7784,1.7781,1.777,1.7767,1.7753,1.7764,1.7755,1.7752,1.7749,1.7744,1.7812,1.7752,1.7752,1.7752,1.7753,1.7753,0,1.7792,1.7793,1.7783,1.7776,1.7766,1.778,1.7775,1.7766,1.7751,1.7748,1.7739,1.7722,1.7709,1.7711,1.7699,1.7687,1.7692,1.7683,1.7682,1.7681,1.7737,1.7742,1.7679,1.7679,1.7679,1.7679,1.7679,1.7679,1.776,1.7738,1.7742,1.7719,1.7719,1.7703,1.7698,1.7693,1.769,1.767,1.766,1.7662,1.7659,1.7647,1.7634,1.7635,1.7629,1.7617,1.7619,1.7671,1.7678,1.7685,1.769,1.7616,1.7616,1.7564,1.7564,1.7563]}]]